IRIDIUM 33 DEB, 34985

Orbit data source: Space-Track

IRIDIUM 33 DEB, 34985 is space debris in LEO originally from a launch on Sun, 14 Sep 1997 UTC launched from the Tyuratam Missile And Space Complex (TTMTR). The debris from Iridium 33, an American commercial communications satellite, has been tracked extensively since its accidental collision with the defunct Russian satellite Cosmos 2251 in 2009. This event, occurring at high speed in low Earth orbit (LEO), generated thousands of pieces of space debris, significantly increasing the risk of further collisions. The Iridium 33 debris cloud has impacted space traffic management and orbital debris mitigation strategies, making it a subject of ongoing study in space situational awareness.

Loading next visibility...
Identifier
34985, 1997-051NR
Orbit
LEO
Country
Flag of USUS
Related business
Manufacturer
Unknown
Mission
Spacecraft
Bus & Motor
Unknown
Mass
Unknown
Launch date (UTC)
1997-09-14 (29 years ago)
Launch vehicle
Unknown
Launch site
Tyuratam Missile And Space Complex (TTMTR)
Object type
Payload
Rocket body
Debris
Shape & HBR
Unknown shape, 0.1 m
Radar Cross Section
Medium (>0.1 m² and <1 m²)

Expand to show TLE details & history
Last TLE update: 1 day ago

TLE from 1 day ago
0 IRIDIUM 33 DEB
1 34985U 97051NR  26208.29426373  .00001816  00000-0  53657-3 0  9990
2 34985  86.3723 320.1769 0020946 190.3309 199.0896 14.42911437904410
Epoch: 2026-07-27T07:03Z
TLE epoch observation values (Epoch: 2026-07-27T07:03:44.386Z)
Latitude
29.32492°
Longitude
-88.70782°
Altitude
766.791 km
Speed
7.466 km/s
True Right ascension
21h 28m 49s
True Declination
29° 10' 43"
Sunlit
Object was in full shadow at epoch
Visualization orbit readout
Latitude
Unknown
Longitude
Unknown
Altitude
Unknown
Speed
Unknown
Apparent Right ascension
Unknown
Apparent Declination
Unknown
Sunlit
N/A
Visualization observer readout
Local Sidereal Time
21:16:50
Azimuth
Unknown
Elevation
Unknown
Doppler factor
Unknown
Orbital elements
Apogee altitude
760.77 km
Perigee altitude
730.926 km
Semi-major axis
7,123.985 km
Eccentricity
0.00209
Inclination
86.3723°
RAAN
320.1769°
Arg. of periapsis
190.3309°
True anomaly
199.01129°
Mean anomaly
199.0896°
Eccentric anomaly
199.05043°
Mean motion
3.6096 °/min
Orbital period
99.73 mins
BSTAR
0.00053657
Loading maneuver chart data...
Computing Atmospheric mass density...
Loading historical data...
Loading historical data...
Loading historical data...
Loading historical data...
Loading historical data...
Loading historical data...
Loading historical data...

Documentation

Showing up to 5 results
|